Weather History for Fredericksburg, TX

Change the Weather History Date:

Saturday, January 19, 2013

  Actual Average (KSAT) Record (KSAT)
Temperature  
Mean Temperature 47 °F 52 °F  
Max Temperature 64 °F 63 °F 85 °F (2000)
Min Temperature 30 °F 41 °F 15 °F (1940)
Degree Days  
Heating Degree Days 18 13  
Month to date heating degree days 264  
Since 1 July heating degree days 866  
Cooling Degree Days 0 0  
Month to date cooling degree days 0  
Year to date cooling degree days 0  
Moisture  
Dew Point 37 °F    
Average Humidity 77    
Maximum Humidity 100    
Minimum Humidity 44    
Precipitation  
Precipitation 0.00 in 0.06 in 1.78 in (1968)
Month to date precipitation 1.02  
Year to date precipitation 1.02  
Snow  
Snow 0.00 in - - ()
Month to date snowfall  
Since 1 July snowfall  
Snow Depth -    
Sea Level Pressure  
Sea Level Pressure 30.22 in    
Wind  
Wind Speed 4 mph (SW)    
Max Wind Speed 18 mph    
Max Gust Speed 24 mph    
Visibility 10 miles    
Events      
T = Trace of Precipitation, MM = Missing Value Source: NWS Daily Summary

Daily Weather History Graph

Daily Weather History Graph

Search for Another Location

Airport:

Trip Planner

Search our weather history database for the weather conditions in past years. The results will help you decide how hot, cold, wet, or windy it might be!

Date:

Astronomy

Jan. 19, 2013 Rise Set
Actual Time 7:31 AM CST 6:01 PM CST
Civil Twilight 7:06 AM CST 6:27 PM CST
Nautical Twilight 6:36 AM CST 6:56 PM CST
Astronomical Twilight 6:08 AM CST 7:25 PM CST
Moon 12:23 PM CST (1/19) 1:13 AM CST (1/19)
Length of Visible Light 11h 20m
Length of Day
10h 29m
First Quarter, 57% of the Moon is Illuminated
Jan 19
First Quarter
Jan 26
Full
Feb 3
Last Quarter
Feb 10
New
Feb 17
First Quarter

Hourly Weather History & Observations

Time (CST) Temp. Windchill Dew Point Humidity Pressure Visibility Wind Dir Wind Speed Gust Speed Precip Events Conditions
12:15 AM 33.1 °F - 31.1 °F 92% 30.29 in 10.0 mi Calm Calm - N/A   Clear
12:35 AM 32.5 °F - 31.1 °F 94% 30.29 in 10.0 mi Calm Calm - N/A   Clear
12:55 AM 31.5 °F - 30.0 °F 94% 30.29 in 10.0 mi Calm Calm - N/A   Clear
1:15 AM 31.3 °F - 30.0 °F 95% 30.28 in 10.0 mi Calm Calm - N/A   Clear
1:35 AM 31.6 °F - 30.0 °F 94% 30.28 in 10.0 mi Calm Calm - N/A   Clear
1:55 AM 31.8 °F - 29.8 °F 92% 30.28 in 10.0 mi Calm Calm - N/A   Clear
2:15 AM 32.0 °F - 30.2 °F 93% 30.27 in 10.0 mi Calm Calm - N/A   Clear
2:35 AM 31.1 °F 27.7 °F 29.7 °F 94% 30.26 in 10.0 mi South 3.5 mph - N/A   Clear
2:55 AM 30.6 °F - 28.4 °F 92% 30.26 in 10.0 mi Calm Calm - N/A   Clear
3:15 AM 32.7 °F - 32.0 °F 97% 30.24 in 10.0 mi Calm Calm - N/A   Clear
3:35 AM 30.9 °F - 30.4 °F 98% 30.24 in 10.0 mi Calm Calm - N/A   Clear
3:55 AM 32.5 °F - 32.4 °F 99% 30.24 in 10.0 mi Calm Calm - N/A   Clear
4:15 AM 33.6 °F - 33.3 °F 99% 30.23 in 10.0 mi Calm Calm - N/A   Clear
4:35 AM 32.2 °F - 32.2 °F 100% 30.22 in 10.0 mi Calm Calm - N/A   Clear
4:55 AM 33.3 °F - 33.3 °F 100% 30.22 in 10.0 mi Calm Calm - N/A   Clear
5:15 AM 32.9 °F 29.8 °F 32.9 °F 100% 30.22 in 10.0 mi NW 3.5 mph - N/A   Clear
5:35 AM 32.2 °F 26.7 °F 32.2 °F 100% 30.22 in 10.0 mi NW 5.8 mph - N/A   Clear
5:55 AM 34.0 °F - 34.0 °F 100% 30.23 in 10.0 mi Calm Calm - N/A   Clear
7:15 AM 33.4 °F - 33.4 °F 100% 30.24 in 10.0 mi Calm Calm - N/A   Clear
7:55 AM 32.5 °F - 32.5 °F 100% 30.24 in 7.0 mi Calm Calm - N/A   Clear
8:15 AM 34.3 °F - 34.3 °F 100% 30.25 in 7.0 mi Calm Calm - N/A   Clear
8:35 AM 36.1 °F - 36.1 °F 100% 30.25 in 10.0 mi Calm Calm - N/A   Clear
9:55 AM 48.2 °F - 45.0 °F 89% 30.28 in 10.0 mi SW 9.2 mph - N/A   Clear
10:15 AM 50.5 °F - 45.1 °F 82% 30.28 in 10.0 mi SW 10.4 mph - N/A   Clear
10:35 AM 53.2 °F - 45.1 °F 74% 30.28 in 10.0 mi SSW 15.0 mph 21.9 mph N/A   Clear
11:15 AM 55.4 °F - 44.1 °F 66% 30.27 in 10.0 mi SW 18.4 mph - N/A   Clear
11:35 AM 57.2 °F - 43.0 °F 59% 30.26 in 10.0 mi SW 17.3 mph 24.2 mph N/A   Clear
11:55 AM 56.8 °F - 43.2 °F 60% 30.25 in 10.0 mi SSW 17.3 mph 21.9 mph N/A   Clear
12:15 PM 56.1 °F - 43.7 °F 63% 30.24 in 10.0 mi SW 12.7 mph - N/A   Clear
12:35 PM 58.1 °F - 43.9 °F 59% 30.22 in 10.0 mi SSW 13.8 mph 17.3 mph N/A   Clear
12:55 PM 60.3 °F - 43.0 °F 53% 30.21 in 10.0 mi SW 15.0 mph 18.4 mph N/A   Clear
1:15 PM 61.0 °F - 42.6 °F 51% 30.19 in 10.0 mi SW 12.7 mph 20.7 mph N/A   Clear
1:35 PM 61.3 °F - 42.4 °F 50% 30.19 in 10.0 mi WSW 10.4 mph 16.1 mph N/A   Clear
1:55 PM 63.1 °F - 42.6 °F 47% 30.17 in 10.0 mi SW 10.4 mph - N/A   Clear
2:15 PM 62.6 °F - 41.7 °F 46% 30.16 in 10.0 mi SSW 9.2 mph 19.6 mph N/A   Clear
2:35 PM 63.1 °F - 41.7 °F 46% 30.16 in 10.0 mi South 11.5 mph - N/A   Clear
2:55 PM 63.5 °F - 42.1 °F 46% 30.16 in 10.0 mi SW 12.7 mph - N/A   Clear
3:15 PM 64.4 °F - 42.6 °F 45% 30.15 in 10.0 mi SSW 9.2 mph - N/A   Clear
3:35 PM 63.9 °F - 42.3 °F 45% 30.15 in 10.0 mi SW 11.5 mph - N/A   Clear
3:55 PM 64.0 °F - 41.9 °F 44% 30.15 in 10.0 mi SSW 11.5 mph - N/A   Clear
4:15 PM 62.8 °F - 41.5 °F 46% 30.16 in 10.0 mi SSW 9.2 mph - N/A   Clear
4:35 PM 63.3 °F - 41.7 °F 45% 30.16 in 10.0 mi SSW 11.5 mph - N/A   Clear
4:55 PM 62.2 °F - 40.6 °F 45% 30.16 in 10.0 mi SSW 9.2 mph - N/A   Clear
5:15 PM 62.1 °F - 40.3 °F 45% 30.16 in 10.0 mi SSW 9.2 mph - N/A   Clear
5:35 PM 61.3 °F - 40.6 °F 47% 30.16 in 10.0 mi SSW 6.9 mph - N/A   Clear
5:55 PM 59.4 °F - 40.6 °F 50% 30.16 in 10.0 mi South 4.6 mph - N/A   Clear
6:15 PM 57.4 °F - 40.6 °F 54% 30.16 in 10.0 mi Calm Calm - N/A   Clear
6:35 PM 51.1 °F - 39.4 °F 64% 30.17 in 10.0 mi SSE 3.5 mph - N/A   Clear
6:55 PM 49.8 °F - 39.0 °F 66% 30.17 in 10.0 mi South 3.5 mph - N/A   Clear
7:15 PM 48.2 °F - 38.8 °F 70% 30.18 in 10.0 mi SSW 3.5 mph - N/A   Clear
7:35 PM 44.4 °F - 38.7 °F 80% 30.18 in 10.0 mi Calm Calm - N/A   Clear
7:55 PM 43.5 °F - 38.1 °F 81% 30.19 in 10.0 mi Calm Calm - N/A   Clear
8:15 PM 41.5 °F 39.6 °F 37.2 °F 85% 30.20 in 10.0 mi WNW 3.5 mph - N/A   Clear
8:35 PM 46.0 °F - 39.4 °F 78% 30.20 in 10.0 mi Calm Calm - N/A   Clear
8:55 PM 41.7 °F - 37.0 °F 83% 30.20 in 10.0 mi Calm Calm - N/A   Clear
9:15 PM 40.8 °F - 36.3 °F 84% 30.21 in 10.0 mi Calm Calm - N/A   Clear
9:35 PM 39.6 °F - 36.5 °F 89% 30.22 in 10.0 mi Calm Calm - N/A   Clear
9:55 PM 39.9 °F 36.7 °F 36.3 °F 87% 30.22 in 10.0 mi NW 4.6 mph - N/A   Clear
10:15 PM 39.4 °F 37.2 °F 36.3 °F 89% 30.22 in 10.0 mi NNW 3.5 mph - N/A   Clear
10:35 PM 38.3 °F - 36.1 °F 92% 30.23 in 10.0 mi Calm Calm - N/A   Clear
10:55 PM 37.4 °F - 35.6 °F 93% 30.23 in 10.0 mi Calm Calm - N/A   Clear
11:15 PM 37.0 °F 33.3 °F 35.2 °F 93% 30.23 in 10.0 mi NW 4.6 mph - N/A   Clear
11:35 PM 36.7 °F 34.1 °F 34.9 °F 93% 30.23 in 10.0 mi West 3.5 mph - N/A   Clear
11:55 PM 35.8 °F 31.9 °F 34.7 °F 96% 30.22 in 10.0 mi NW 4.6 mph - N/A   Clear